TimeGMT,TemperatureF,Dew PointF,Humidity,Sea Level PressureIn,VisibilityMPH,Wind Direction,Wind SpeedMPH,Gust SpeedMPH,PrecipitationIn,Events,Conditions,WindDirDegrees,DateUTC
12:20 AM,35.6,26.6,70,29.92,6.2,ENE,13.8,-,N/A,,Overcast,60,2013-03-10 00:20:00
12:50 AM,35.6,26.6,70,29.92,6.2,ENE,13.8,-,N/A,,Overcast,60,2013-03-10 00:50:00
1:20 AM,35.6,26.6,70,29.92,6.2,ENE,15.0,-,N/A,,Overcast,60,2013-03-10 01:20:00
1:50 AM,35.6,26.6,70,29.92,6.2,ENE,15.0,-,N/A,,Mostly Cloudy,60,2013-03-10 01:50:00
2:20 AM,35.6,26.6,70,29.92,6.2,ENE,12.7,-,N/A,,Scattered Clouds,60,2013-03-10 02:20:00
2:50 AM,35.6,26.6,70,29.92,6.2,ENE,12.7,-,N/A,,Overcast,60,2013-03-10 02:50:00
3:20 AM,35.6,24.8,65,29.92,6.2,ENE,13.8,-,N/A,,Scattered Clouds,60,2013-03-10 03:20:00
3:50 AM,35.6,24.8,65,29.92,-9999.0,ENE,13.8,-,N/A,,Clear,60,2013-03-10 03:50:00
4:20 AM,35.6,24.8,65,29.92,-9999.0,NE,12.7,-,N/A,,Clear,50,2013-03-10 04:20:00
4:50 AM,35.6,24.8,65,29.92,-9999.0,ENE,15.0,-,N/A,,Clear,60,2013-03-10 04:50:00
5:20 AM,35.6,24.8,65,29.92,-9999.0,ENE,13.8,-,N/A,,Clear,60,2013-03-10 05:20:00
5:50 AM,33.8,24.8,70,29.92,6.2,ENE,12.7,-,N/A,,Partly Cloudy,60,2013-03-10 05:50:00
6:20 AM,33.8,24.8,70,29.92,6.2,NE,11.5,-,N/A,,Scattered Clouds,40,2013-03-10 06:20:00
6:50 AM,33.8,26.6,75,29.95,6.2,NE,11.5,-,N/A,,Scattered Clouds,50,2013-03-10 06:50:00
7:20 AM,33.8,26.6,75,29.95,6.2,NE,16.1,-,N/A,,Partly Cloudy,40,2013-03-10 07:20:00
7:50 AM,33.8,26.6,75,29.95,6.2,NE,17.3,-,N/A,,Partly Cloudy,50,2013-03-10 07:50:00
8:20 AM,33.8,26.6,75,29.95,5.6,NE,18.4,-,N/A,Snow,Light Snow,50,2013-03-10 08:20:00
8:50 AM,33.8,28.4,81,29.98,6.2,NE,13.8,-,N/A,Snow,Light Snow,40,2013-03-10 08:50:00
9:20 AM,35.6,26.6,70,29.98,6.2,NE,15.0,-,N/A,,Mostly Cloudy,50,2013-03-10 09:20:00
9:50 AM,35.6,26.6,70,29.98,6.2,NE,16.1,-,N/A,,Mostly Cloudy,50,2013-03-10 09:50:00
10:20 AM,35.6,26.6,70,29.98,6.2,NE,18.4,-,N/A,,Mostly Cloudy,40,2013-03-10 10:20:00
10:50 AM,35.6,28.4,75,29.98,6.2,NE,17.3,-,N/A,,Mostly Cloudy,40,2013-03-10 10:50:00
11:20 AM,39.2,28.4,65,29.98,6.2,NE,19.6,31.1,N/A,,Mostly Cloudy,40,2013-03-10 11:20:00
11:50 AM,37.4,28.4,70,29.98,6.2,NE,18.4,-,N/A,,Mostly Cloudy,40,2013-03-10 11:50:00
12:20 PM,33.8,30.2,87,30.01,2.5,ENE,17.3,-,N/A,Snow,Light Snow Showers,70,2013-03-10 12:20:00
12:50 PM,35.6,32.0,87,30.01,6.2,ENE,12.7,-,N/A,,Mostly Cloudy,60,2013-03-10 12:50:00
1:20 PM,37.4,28.4,70,30.01,6.2,East,15.0,-,N/A,,Mostly Cloudy,80,2013-03-10 13:20:00
1:50 PM,35.6,30.2,81,30.01,3.7,ENE,16.1,-,N/A,,Mostly Cloudy,60,2013-03-10 13:50:00
2:20 PM,37.4,28.4,70,30.01,6.2,ENE,15.0,-,N/A,,Scattered Clouds,60,2013-03-10 14:20:00
2:50 PM,39.2,30.2,70,30.01,6.2,ENE,18.4,-,N/A,,Scattered Clouds,60,2013-03-10 14:50:00
3:20 PM,35.6,30.2,81,30.01,6.2,East,16.1,-,N/A,,Scattered Clouds,90,2013-03-10 15:20:00
3:50 PM,37.4,26.6,65,30.04,6.2,East,18.4,-,N/A,,Mostly Cloudy,80,2013-03-10 15:50:00
4:20 PM,32.0,30.2,93,30.04,6.2,ENE,12.7,-,N/A,,Scattered Clouds,60,2013-03-10 16:20:00
4:50 PM,35.6,28.4,75,30.04,6.2,ENE,12.7,-,N/A,,Scattered Clouds,60,2013-03-10 16:50:00
5:20 PM,33.8,26.6,75,30.04,6.2,ENE,16.1,-,N/A,,Scattered Clouds,60,2013-03-10 17:20:00
5:50 PM,33.8,24.8,70,30.06,1.9,ENE,18.4,-,N/A,Snow,Light Snow Showers,60,2013-03-10 17:50:00
6:20 PM,30.2,26.6,86,30.06,6.2,ENE,6.9,-,N/A,,Mostly Cloudy,70,2013-03-10 18:20:00
6:50 PM,30.2,26.6,86,30.09,6.2,ENE,15.0,-,N/A,,Mostly Cloudy,60,2013-03-10 18:50:00
7:20 PM,30.2,26.6,86,30.09,6.2,ENE,11.5,-,N/A,,Scattered Clouds,60,2013-03-10 19:20:00
7:50 PM,30.2,23.0,75,30.09,6.2,NE,12.7,-,N/A,,Partly Cloudy,50,2013-03-10 19:50:00
8:20 PM,30.2,24.8,80,30.09,6.2,NE,12.7,-,N/A,,Mostly Cloudy,50,2013-03-10 20:20:00
8:50 PM,30.2,23.0,75,30.12,6.2,NNE,11.5,-,N/A,,Partly Cloudy,30,2013-03-10 20:50:00
9:20 PM,28.4,23.0,80,30.12,-9999.0,NE,10.4,-,N/A,,Clear,40,2013-03-10 21:20:00
9:50 PM,28.4,23.0,80,30.12,6.2,NE,13.8,-,N/A,Snow,Light Snow Showers,40,2013-03-10 21:50:00
10:20 PM,28.4,23.0,80,30.12,6.2,NE,10.4,-,N/A,,Partly Cloudy,40,2013-03-10 22:20:00
10:50 PM,26.6,23.0,86,30.12,-9999.0,NNE,5.8,-,N/A,,Clear,30,2013-03-10 22:50:00
11:20 PM,26.6,21.2,80,30.12,-9999.0,NE,11.5,-,N/A,,Clear,50,2013-03-10 23:20:00
11:50 PM,26.6,21.2,80,30.12,-9999.0,NE,10.4,-,N/A,,Clear,50,2013-03-10 23:50:00